{"data":{"norad_id":56711,"epoch":"2026-05-25T04:10:19.508160Z","epoch_age_seconds":56187,"freshness":"FRESH","line1":"1 56711U 23068B   26145.17383690  .00000098  00000+0  22363-3 0  9999","line2":"2 56711  87.9111 233.3409 0002288 112.8400 247.2972 13.16593211148759","mean_motion":13.16593211,"eccentricity":0.0002288,"inclination_deg":87.9111,"raan_deg":233.3409,"arg_perigee_deg":112.84,"mean_anomaly_deg":247.2972,"bstar":0.00022363,"rev_number":14875,"period_min":109.37319044098,"perigee_km":1196.0273142748,"apogee_km":1199.494045053,"semimajor_km":7575.8976796639,"source":"CELESTRAK","updated_at":"2026-05-25T13:38:22.708246Z"}}